Weather History for Chesapeake, VA

Change the Weather History Date:

Sunday, February 16, 2014

  Actual Average (KORF) Record (KORF)
Temperature  
Mean Temperature 37 °F 43 °F  
Max Temperature 48 °F 51 °F 77 °F (1990)
Min Temperature 26 °F 34 °F 12 °F (1905)
Degree Days  
Heating Degree Days 28 22  
Month to date heating degree days 373  
Since 1 July heating degree days 2315  
Cooling Degree Days 0 0  
Month to date cooling degree days 0  
Year to date cooling degree days 0  
Moisture  
Dew Point 25 °F    
Average Humidity 63    
Maximum Humidity 93    
Minimum Humidity 42    
Precipitation  
Precipitation 0.00 in 0.11 in 1.34 in (2003)
Month to date precipitation 1.74  
Year to date precipitation 5.14  
Snow  
Snow 0.00 in 0.10 in 6.00 in (1922)
Month to date snowfall 1.3  
Since 1 July snowfall 4.9  
Snow Depth -    
Sea Level Pressure  
Sea Level Pressure 30.06 in    
Wind  
Wind Speed 3 mph (WSW)    
Max Wind Speed 16 mph    
Max Gust Speed 21 mph    
Visibility 10 miles    
Events      
T = Trace of Precipitation, MM = Missing Value Source: NWS Daily Summary

Daily Weather History Graph

Daily Weather History Graph

Search for Another Location

Airport:

Trip Planner

Search our weather history database for the weather conditions in past years. The results will help you decide how hot, cold, wet, or windy it might be!

Date:

Astronomy

Feb. 16, 2014 Rise Set
Actual Time 6:52 AM EST 5:46 PM EST
Civil Twilight 6:25 AM EST 6:13 PM EST
Nautical Twilight 5:55 AM EST 6:43 PM EST
Astronomical Twilight 5:25 AM EST 7:13 PM EST
Moon 7:37 PM EST (2/16) 7:24 AM EST (2/16)
Length of Visible Light 11h 47m
Length of Day
10h 54m
Full, 97% of the Moon is Illuminated
Feb 16
Full
Feb 22
Last Quarter
Mar 1
New
Mar 8
First Quarter
Mar 16
Full

Hourly Weather History & Observations

Time (EST) Temp. Windchill Dew Point Humidity Pressure Visibility Wind Dir Wind Speed Gust Speed Precip Events Conditions
12:15 AM 30.2 °F - 24.8 °F 80% 30.00 in 10.0 mi Calm Calm - N/A   Clear
12:35 AM 30.2 °F - 24.8 °F 80% 30.01 in 10.0 mi Calm Calm - N/A   Clear
12:55 AM 30.2 °F 26.7 °F 24.8 °F 80% 30.01 in 10.0 mi WSW 3.5 mph - N/A   Clear
1:15 AM 30.2 °F - 24.8 °F 80% 30.02 in 10.0 mi Calm Calm - N/A   Clear
1:35 AM 30.2 °F 25.4 °F 24.8 °F 80% 30.02 in 10.0 mi West 4.6 mph - N/A   Clear
1:55 AM 30.2 °F 26.7 °F 24.8 °F 80% 30.03 in 7.0 mi West 3.5 mph - N/A   Clear
2:15 AM 30.2 °F 26.7 °F 24.8 °F 80% 30.03 in 10.0 mi West 3.5 mph - N/A   Clear
2:35 AM 30.2 °F 25.4 °F 24.8 °F 80% 30.03 in 10.0 mi West 4.6 mph - N/A   Clear
2:55 AM 30.2 °F 26.7 °F 24.8 °F 80% 30.04 in 10.0 mi West 3.5 mph - N/A   Clear
3:15 AM 30.2 °F - 23.0 °F 75% 30.05 in 10.0 mi Calm Calm - N/A   Clear
3:35 AM 28.4 °F - 23.0 °F 80% 30.05 in 10.0 mi Calm Calm - N/A   Clear
3:55 AM 28.4 °F 24.6 °F 21.2 °F 74% 30.05 in 10.0 mi SW 3.5 mph - N/A   Clear
4:15 AM 28.4 °F 23.3 °F 21.2 °F 74% 30.06 in 10.0 mi WSW 4.6 mph - N/A   Clear
4:35 AM 28.4 °F - 21.2 °F 74% 30.06 in 10.0 mi Calm Calm - N/A   Clear
4:55 AM 26.6 °F - 21.2 °F 80% 30.06 in 10.0 mi Calm Calm - N/A   Clear
5:15 AM 26.6 °F - 21.2 °F 80% 30.07 in 10.0 mi Calm Calm - N/A   Clear
5:35 AM 26.6 °F - 23.0 °F 86% 30.07 in 10.0 mi Calm Calm - N/A   Clear
5:55 AM 26.6 °F - 24.8 °F 93% 30.08 in 10.0 mi Calm Calm - N/A   Clear
6:15 AM 28.4 °F - 21.2 °F 74% 30.08 in 10.0 mi Calm Calm - N/A   Clear
6:35 AM 28.4 °F - 21.2 °F 74% 30.08 in 10.0 mi Calm Calm - N/A   Clear
6:55 AM 28.4 °F - 21.2 °F 74% 30.08 in 10.0 mi Calm Calm - N/A   Clear
7:15 AM 28.4 °F - 21.2 °F 74% 30.09 in 10.0 mi Calm Calm - N/A   Scattered Clouds
7:35 AM 28.4 °F - 23.0 °F 80% 30.10 in 10.0 mi Calm Calm - N/A   Scattered Clouds
7:55 AM 28.4 °F - 23.0 °F 80% 30.10 in 10.0 mi Calm Calm - N/A   Clear
8:15 AM 30.2 °F - 21.2 °F 69% 30.11 in 7.0 mi Calm Calm - N/A   Clear
8:35 AM 30.2 °F - 23.0 °F 75% 30.11 in 10.0 mi Calm Calm - N/A   Clear
8:55 AM 33.8 °F 30.8 °F 23.0 °F 65% 30.11 in 10.0 mi North 3.5 mph - N/A   Mostly Cloudy
9:15 AM 33.8 °F 27.7 °F 21.2 °F 60% 30.10 in 10.0 mi NNE 6.9 mph - N/A   Mostly Cloudy
9:35 AM 35.6 °F 31.7 °F 21.2 °F 56% 30.10 in 10.0 mi ENE 4.6 mph - N/A   Scattered Clouds
9:55 AM 35.6 °F - 21.2 °F 56% 30.10 in 7.0 mi Calm Calm - N/A   Clear
10:15 AM 37.4 °F 34.9 °F 21.2 °F 52% 30.10 in 10.0 mi South 3.5 mph - N/A   Clear
10:35 AM 37.4 °F 34.9 °F 21.2 °F 52% 30.10 in 10.0 mi SSE 3.5 mph - N/A   Clear
10:55 AM 37.4 °F - 21.2 °F 52% 30.10 in 10.0 mi Calm Calm - N/A   Clear
11:15 AM 39.2 °F 37.0 °F 21.2 °F 49% 30.10 in 10.0 mi South 3.5 mph - N/A   Clear
11:35 AM 39.2 °F 34.2 °F 21.2 °F 49% 30.10 in 10.0 mi South 6.9 mph - N/A   Clear
11:55 AM 39.2 °F 33.6 °F 21.2 °F 49% 30.09 in 10.0 mi South 8.1 mph - N/A   Clear
12:15 PM 41.0 °F 36.4 °F 23.0 °F 49% 30.08 in 10.0 mi South 6.9 mph - N/A   Clear
12:35 PM 41.0 °F 39.0 °F 21.2 °F 45% 30.06 in 10.0 mi SSE 3.5 mph - N/A   Clear
12:55 PM 42.8 °F 37.0 °F 21.2 °F 42% 30.05 in 10.0 mi WSW 10.4 mph - N/A   Clear
1:15 PM 44.6 °F 40.2 °F 24.8 °F 46% 30.05 in 10.0 mi SW 8.1 mph - N/A   Clear
1:35 PM 44.6 °F 39.2 °F 24.8 °F 46% 30.04 in 10.0 mi SSW 10.4 mph 16.1 mph N/A   Clear
1:55 PM 44.6 °F 38.8 °F 26.6 °F 49% 30.03 in 10.0 mi SW 11.5 mph - N/A   Clear
2:15 PM 44.6 °F 40.7 °F 26.6 °F 49% 30.01 in 10.0 mi SSW 6.9 mph 10.4 mph N/A   Clear
2:35 PM 46.4 °F 42.4 °F 26.6 °F 46% 30.01 in 10.0 mi West 8.1 mph - N/A   Clear
2:55 PM 46.4 °F 42.4 °F 26.6 °F 46% 30.00 in 10.0 mi SSW 8.1 mph - N/A   Clear
3:15 PM 46.4 °F 40.1 °F 26.6 °F 46% 30.00 in 10.0 mi WSW 15.0 mph 19.6 mph N/A   Clear
3:35 PM 46.4 °F 39.8 °F 24.8 °F 43% 30.00 in 10.0 mi SW 16.1 mph 20.7 mph N/A   Clear
3:55 PM 48.2 °F - 26.6 °F 43% 30.00 in 10.0 mi WSW 12.7 mph - N/A   Clear
4:15 PM 48.2 °F - 28.4 °F 46% 30.00 in 7.0 mi WSW 9.2 mph - N/A   Clear
4:35 PM 48.2 °F - 26.6 °F 43% 29.99 in 10.0 mi SW 15.0 mph - N/A   Clear
4:55 PM 48.2 °F - 28.4 °F 46% 30.00 in 10.0 mi SW 11.5 mph 17.3 mph N/A   Clear
5:15 PM 46.4 °F 42.4 °F 28.4 °F 50% 29.99 in 10.0 mi SW 8.1 mph - N/A   Clear
5:35 PM 46.4 °F 44.3 °F 28.4 °F 50% 30.00 in 7.0 mi WSW 4.6 mph - N/A   Clear
5:55 PM 42.8 °F 40.1 °F 30.2 °F 61% 30.02 in 10.0 mi WSW 4.6 mph - N/A   Clear
6:15 PM 41.0 °F 37.1 °F 30.2 °F 65% 30.03 in 10.0 mi WSW 5.8 mph - N/A   Scattered Clouds
6:35 PM 44.6 °F 42.2 °F 30.2 °F 57% 30.04 in 10.0 mi West 4.6 mph - N/A   Mostly Cloudy
6:55 PM 44.6 °F 42.2 °F 30.2 °F 57% 30.04 in 10.0 mi West 4.6 mph - N/A   Overcast
7:15 PM 44.6 °F 43.1 °F 28.4 °F 53% 30.06 in 10.0 mi WSW 3.5 mph - N/A   Overcast
7:35 PM 42.8 °F - 30.2 °F 61% 30.06 in 10.0 mi Calm Calm - N/A   Overcast
7:55 PM 41.0 °F - 30.2 °F 65% 30.06 in 10.0 mi Calm Calm - N/A   Overcast
8:15 PM 39.2 °F - 32.0 °F 75% 30.08 in 10.0 mi Calm Calm - N/A   Overcast
8:35 PM 42.8 °F 41.1 °F 28.4 °F 57% 30.09 in 10.0 mi NW 3.5 mph - N/A   Overcast
8:55 PM 42.8 °F 41.1 °F 28.4 °F 57% 30.09 in 10.0 mi NW 3.5 mph - N/A   Mostly Cloudy
9:15 PM 42.8 °F - 28.4 °F 57% 30.10 in 10.0 mi Calm Calm - N/A   Mostly Cloudy
9:35 PM 41.0 °F - 28.4 °F 61% 30.11 in 10.0 mi Calm Calm - N/A   Mostly Cloudy
9:55 PM 39.2 °F - 30.2 °F 70% 30.12 in 10.0 mi Calm Calm - N/A   Mostly Cloudy
10:15 PM 39.2 °F 37.0 °F 28.4 °F 65% 30.13 in 10.0 mi WNW 3.5 mph - N/A   Mostly Cloudy
10:35 PM 39.2 °F - 28.4 °F 65% 30.14 in 10.0 mi Calm Calm - N/A   Mostly Cloudy
10:55 PM 41.0 °F 38.0 °F 28.4 °F 61% 30.15 in 10.0 mi West 4.6 mph - N/A   Overcast
11:15 PM 42.8 °F 39.3 °F 26.6 °F 53% 30.15 in 10.0 mi West 5.8 mph - N/A   Mostly Cloudy
11:35 PM 41.0 °F 36.4 °F 26.6 °F 57% 30.16 in 10.0 mi WNW 6.9 mph - N/A   Scattered Clouds
11:55 PM 39.2 °F 32.5 °F 28.4 °F 65% 30.19 in 7.0 mi North 10.4 mph - N/A   Clear